Regional Weather Roundup
Issued by NWS

Home | Current Version | Previous Version | Text Only | Print | Product List | Glossary On
Versions: 1 2 3 4 5 6 7 8 9 10 11 12 13 14 15 16 17 18 19 20 21 22 23 24 25 26 27 28 29 30 31 32 33 34 35 36 37 38 39 40 41 42 43 44 45 46 47 48 49 50
000
ASUS42 KFFC 311110
RWRGA
WEATHER ROUNDUP FOR GEORGIA
NATIONAL WEATHER SERVICE PEACHTREE CITY GA
700 AM EDT FRI JUL 31 2015

NOTE: "FAIR" INDICATES FEW OR NO CLOUDS BELOW 12,000 FEET WITH NO
SIGNIFICANT WEATHER AND/OR OBSTRUCTIONS TO VISIBILITY.

* = USE WITH CAUTION. THE STATIONS MARKED WITH AN ASTERISK MAY NOT
REPORT WEATHER SUCH AS PRECIPITATION, FOG, OR THUNDER AND ARE NOT
QUALITY CONTROLLED BY NWS.

THE REMARK "TC" DENOTES TEMPERATURE READING IN DEGREES CELSIUS.

GAZ001>058-311200-
NORTH GEORGIA

CITY           SKY/WX    TMP DP  RH WIND       PRES   REMARKS
ATLANTA        PTCLDY    73  65  75 NW9       29.96R
ATHENS         CLEAR     77  70  79 NE7       29.95R
CHAMBLEE       CLEAR     73  66  78 N3        29.97R
PEACHTREE CITY CLEAR     73  66  78 NW5       29.96R
ROME           CLEAR     72  61  68 NW6       29.99R
WEST ATLANTA   CLEAR     73  65  75 CALM      29.97R
GAINESVILLE    CLEAR     74  68  81 NE6       30.01R
CARTERSVILLE   CLEAR     69  63  81 CALM      29.99R


CITY           SKY/WX    TMP DP  RH WIND       PRES   REMARKS
DALTON*        CLEAR     68  63  83 N14       30.00R
LAWRENCEVILLE* CLEAR     73  64  73 CALM      29.96
MARIETTA       PTCLDY    73  66  79 NW5       29.98R
KENNESAW*      CLEAR     72  64  78 NW5       29.98
BLAIRSVILLE*     N/A     65  58  77 CALM      30.06R
$$

GAZ059>098-102>109-311200-
CENTRAL GEORGIA

CITY           SKY/WX    TMP DP  RH WIND       PRES   REMARKS
AUGUSTA-BUSH   PTCLDY    76  75  97 CALM      29.91R FOG
AUGUSTA-DANIEL PTCLDY    79  73  82 N3        29.93R
COLUMBUS       CLEAR     77  68  73 N5        29.93R
MACON          CLEAR     73  72  96 CALM      29.92R


CITY           SKY/WX    TMP DP  RH WIND       PRES   REMARKS
LAGRANGE*      CLEAR     76  73  88 CALM      29.96R
SYLVANIA*      CLOUDY    78  77  98 CALM      29.93R
MILLEDGEVILLE* CLEAR     73  72  94 CALM      29.91S FOG
$$

GAZ099>101-110>166-311200-
SOUTH GEORGIA

CITY           SKY/WX    TMP DP  RH WIND       PRES   REMARKS
SAVANNAH       CLOUDY    79  75  87 W5        29.93R
VALDOSTA       CLOUDY    76  76 100 CALM      29.94R FOG
ALMA           PTCLDY    76  75  97 S3        29.93R FOG
ST SIMONS      PTCLDY    77  76  96 W7        29.93R
FT STEWART     CLOUDY    78  75  90 SW6       29.91R
ALBANY         CLOUDY    76  75  97 CALM      29.94R FOG
MOODY AFB      CLOUDY    74  73  95 N1        29.93R FOG
BRUNSWICK      PTCLDY    77  73  88 CALM      29.94R


CITY           SKY/WX    TMP DP  RH WIND       PRES   REMARKS
BAINBRIDGE*    CLOUDY    79  77  94 SE3       29.93R FOG
MOULTRIE*      PTCLDY    77  73  88 CALM      29.94R FOG
VIDALIA*       PTCLDY    77  73  88 SW3       29.94R FOG
WAYCROSS*      MOCLDY    79  79 100 SW3       29.93S FOG
DOUGLAS*       CLOUDY    77  75  94 CALM      29.95R FOG
$$


USA.gov is the U.S. government's official web portal to all federal, state and local government web resources and services.